Location: ??
(31.9467°N, 34.8903°E)
Time: 18:10:16
(UTC+00:00)

CSL-04 Rocket - Pass Details

Date: 29 October 2020
Orbit: 805 x 861 km, 98.9° (Epoch: 30 November)

Event Time Altitude Azimuth Distance (km) Brightness Sun altitude
Exits shadow 16:52:33 32° 163° (SSE) 1,436 4.7 -25.9°
Maximum altitude 16:55:16 86° 78° (ENE) 864 3.6 -26.4°
Drops below altitude 10° 17:00:49 10° 348° (NNW) 2,486 6.3 -27.6°
Sets 17:03:11 0° 348° (NNW) 3,419 7.0 -28.1°
